Location: *
(48.8667°N, 2.3331°E)
Time: 01:27:21
(UTC+00:00)

SL-16 R/B - Pass Details

Date: 09 April 2020
Orbit: 842 x 846 km, 71.0° (Epoch: 30 May)

Event Time Altitude Azimuth Distance (km) Brightness Sun altitude
Rises 23:12:16 0° 330° (NNW) 3,415 6.3 -32.4°
Reaches altitude 10° 23:14:43 10° 328° (NNW) 2,477 5.4 -32.5°
Enters shadow 23:18:46 47° 313° (NW) 1,115 3.0 -32.6°
